Regional Weather Roundup
Issued by NWS

Home | Current Version | Previous Version | Text Only | Print | Product List | Glossary Off
Versions: 1 2 3 4 5 6 7 8 9 10 11 12 13 14 15 16 17 18 19 20 21 22 23 24 25 26 27 28 29 30 31 32 33 34 35 36 37 38 39 40 41 42 43 44 45 46 47 48 49 50

360
ASUS43 KBIS 062302
RWRND

NORTH DAKOTA REGIONAL WEATHER ROUNDUP
NATIONAL WEATHER SERVICE BISMARCK ND
500 PM CST TUE DEC 06 2016

NOTE: "FAIR" INDICATES FEW OR NO CLOUDS BELOW 12,000 FEET WITH NO
SIGNIFICANT WEATHER AND/OR OBSTRUCTIONS TO VISIBILITY.


NDZ001>003-009>011-017-070000-
NORTHWEST NORTH DAKOTA

CITY           SKY/WX    TMP DP  RH WIND       PRES   REMARKS
WILLISTON      CLOUDY     5  -3  69 NW22      30.08R WCI -16
MINOT          SNOW       7   3  84 W33G43    29.89R VSB 1/2 WCI -17
$$

NDZ018>021-031>035-040>046-070000-
SOUTHWEST NORTH DAKOTA

CITY           SKY/WX    TMP DP  RH WIND       PRES   REMARKS
BISMARCK       CLOUDY     8   4  83 NW16G33   29.95S WCI -10
DICKINSON      MIX PCPN   1  -5  75 NW28G36   29.98R WCI -24
GARRISON         N/A      6   1  80 NW33G45   29.91R WCI -19
HETTINGER ARPT CLOUDY     4  -2  76 NW31G39   30.00R HAZE    WCI -21
$$

NDZ004>008-012>016-024-026-027-054-070000-
NORTHEAST NORTH DAKOTA

CITY           SKY/WX    TMP DP  RH WIND       PRES   REMARKS
GRAND FORKS    SNOW      22  18  85 NW32G39   29.54R VSB 1/2 WCI   3
DEVILS LAKE    SNOW      14  11  87 W32G44    29.67R VSB 1/4 WCI  -7
$$

NDZ022-023-025-028>030-036>039-047>053-070000-
SOUTHEAST NORTH DAKOTA

CITY           SKY/WX    TMP DP  RH WIND       PRES   REMARKS
FARGO          LGT SNOW  19  13  77 W35G45    29.61R VSB 1   WCI  -1
JAMESTOWN      SNOW      13   9  84 NW36G51   29.74R VSB 1/2 WCI -10
$$





USA.gov is the U.S. government's official web portal to all federal, state and local government web resources and services.